Карточка аэропорта USTR

Внимание!
Информация на этой странице в стадии наполнения.
Если вы не увидели какой-то информации, или заметили неточность - пожалуйста сообщите нам!
Спасибо!
Команда RU-STAFF
Название аэропортаРощино
Название аэропорта (англ.)Roshschino
Превышение378 ft. (115.2 m.)
Координаты57°10.098', 65°19.002'
Высота перехода3000ft
Эшелон переходаQNH⩾1013hPa:FL040; QNH⩾977hPa:FL050; QNH⩽977hPa:FL060
Коды ответчика5101-5137
Зона ОрВДТюмень РПИ (USTV)
Данные METARUSTR 231030Z 21002MPS 180V240 CAVOK M10/M18 Q1033 R21/090065 R30/090065 NOSIG
Проноз погоды (TAF)USTR 230737Z 2309/2409 23003G10MPS 9999 SCT020 TEMPO 2309/2324 -SN FEW007 SCT016 BECMG 2400/2402 26005G12MPS
NOTAMshow/hide NOTAM
AWOS   TABLE

Информация о ВПП

ВПП Длина ВПП (м.) Покрытие Курс ВПП Частота ILS
302704Асфальтобетон301 
213003Асфальтобетон214110.7
122704Асфальтобетон121 
033003Асфальтобетон34108.3

Диспетчерские позиции

Позывной Наименование органа УВД Частота
USTR_TWRТюмень-Старт118.200
USTR_GNDТюмень-Руление119.000
USTR_R_APPТюмень-Круг126.100



Спутниковое изображение